Simultaneous Nadir Overpasses (SNOs) Predictions

Prediction of SNOs between AQUA and GOES-15 Satellite Orbit:

Table of predicted SNOs for the next 14.0 days since TLE Epoch: 10/20/2018
Index Date Time (AQUA) AQUA Lat,Lon GOES-15 Lat,Lon Distance(km) Time Diff (sec)
1 10/20/2018 22:28:58 0.19,-133.39 -0.22,-135.45 233.52 80
2 10/21/2018 10:50:13 0.84,-138.56 0.20,-135.50 347.80 80
3 10/23/2018 10:38:02 0.23,-135.60 0.20,-135.45 16.51 80
4 10/25/2018 10:25:50 -0.39,-132.64 0.20,-135.40 314.16 80
5 10/25/2018 22:47:13 -0.74,-137.82 -0.18,-135.32 285.53 80
6 10/27/2018 22:35:01 -0.11,-134.86 -0.18,-135.25 44.08 80
7 10/29/2018 22:22:50 0.53,-131.91 -0.19,-135.18 372.82 80
8 10/30/2018 10:44:04 0.58,-137.06 0.16,-135.23 208.46 80
9 11/01/2018 10:31:52 -0.05,-134.10 0.16,-135.15 119.26 80
10 11/01/2018 22:53:16 -1.06,-139.29 -0.14,-135.06 482.21 80




NCC Satellite Simultaneous Nadir Overpasses (SNOs) Prediction Service
